Regional Weather Roundup
Issued by NWS

Home | Current Version | Previous Version | Graphics & Text | Print | Product List | Glossary On
Versions: 1 2 3 4 5 6 7 8 9 10 11 12 13 14 15 16 17 18 19 20 21 22 23 24 25 26 27 28 29 30 31 32 33 34 35 36 37 38 39 40 41 42 43 44 45 46 47 48 49 50
000
ASUS45 KBOU 280407
RWRCO

WEATHER ROUNDUP FOR COLORADO
NATIONAL WEATHER SERVICE DENVER/BOULDER CO
1000 PM MDT WED MAY 27 2015

NOTE: "FAIR" INDICATES FEW OR NO CLOUDS BELOW 12000 FEET WITH NO
SIGNIFICANT WEATHER AND/OR OBSTRUCTIONS TO VISIBILITY.

COZ001>005-013-030-031-280500-
...NORTHWEST COLORADO...

CITY           SKY/WX    TMP DP  RH WIND       PRES   REMARKS
CRAIG          CLOUDY    51  44  77 SW5       30.17R
HAYDEN         CLOUDY    52  39  62 W3        30.20R
MEEKER         LGT RAIN  50  46  86 SW9       30.23R
MOUNT WERNER   NOT AVBL
STEAMBOAT SPGS CLOUDY    51  42  73 W9        30.22R
WALDEN         CLOUDY    43  36  75 SE6       30.23R
$$

COZ006>008-011-280500-
...WEST CENTRAL VALLEYS...

CITY           SKY/WX    TMP DP  RH WIND       PRES   REMARKS
GRAND JUNCTION CLOUDY    57  46  66 S9        30.09R
MONTROSE       PTCLDY    56  42  59 SE8       30.12S
EAGLE          CLOUDY    55  43  62 E6        30.19R
RIFLE          LGT RAIN  55  45  68 NW13      30.18R
DELTA          PTCLDY    64  44  46 S5        30.08S
NUCLA          PTCLDY    57  41  54 E10       30.13S
$$

COZ017>023-064>068-280500-
...SOUTHWEST COLORADO...

CITY           SKY/WX    TMP DP  RH WIND       PRES   REMARKS
DURANGO        MOCLDY    58  37  45 CALM      30.13R
CORTEZ         CLEAR     54  43  66 E7        30.10R
PAGOSA SPRINGS MOCLDY    53  40  62 CALM      30.21R
TELLURIDE      PTCLDY    47  38  69 SE6       30.32R
WOLF CREEK PAS NOT AVBL
$$

COZ009-010-012-014-032>034-037-058>063-280500-
...CENTRAL COLORADO...

CITY           SKY/WX    TMP DP  RH WIND       PRES   REMARKS
ASPEN          MOCLDY    51  35  54 S15       30.21R
BUENA VISTA    MOCLDY    49  35  58 NW10      30.24S
COPPER MTN     CLOUDY    36  32  87 S10       30.43F
BERTHOUD PASS  CLOUDY    30  23  74 W22       30.45S WCI  17
COTTONWOOD PAS MOCLDY    43  32  65 NW7       30.31F
GUNNISON       PTCLDY    45  36  70 N9        30.29S
KREMMLING      CLOUDY    50  39  66 W6        30.23R
LEADVILLE      CLOUDY    38  33  82 CALM      30.33R
MONARCH PASS   PTCLDY    34  28  80 W23       30.52R WCI  22
SALIDA         MOCLDY    54  35  49 CALM      30.30R
SUNLIGHT       MOCLDY    37  37 100 NW6       30.40R
WILKERSON PASS MOCLDY    36  28  75 W10G20    30.39S
$$

COZ069>075-280500-
...SAN LUIS VALLEY/SANGRE DE CRISTO MOUNTAINS...

CITY           SKY/WX    TMP DP  RH WIND       PRES   REMARKS
ALAMOSA        MOCLDY    50  36  58 N6        30.20R
LA VETA PASS   PTCLDY   N/A N/A N/A MISG      30.34R
SAGUACHE       MOCLDY    48  37  66 NW13      30.24R
$$

COZ035-036-038>040-280500-
...NORTHERN COLORADO FRONT RANGE...

CITY           SKY/WX    TMP DP  RH WIND       PRES   REMARKS
DENVER INTL AP MOCLDY    64  44  48 S13       30.04R
DMNS CITY PARK   N/A     64  44  48 W8G14     30.06R
AURORA         NOT AVBL
FRONT RANGE AP NOT AVBL
ERIE MUNI ARPT PTCLDY    60  47  63 CALM      30.04R
BOULDER MUN AP PTCLDY    63  45  51 CALM      30.04R
CENTENNIAL     MOCLDY    62  45  53 W3        30.08R
BROOMFIELD     MOCLDY    63  45  51 S14G20    30.08R
FORT COLLINS   MOCLDY    63  50  63 NE5       30.06R
LONGMONT       PTCLDY    61  49  65 N6        30.05R
$$

COZ041-046-047-076>085-087-088-280500-
...PIKES PEAK/PALMER DIVIDE AND SOUTHERN FOOTHILLS...

CITY           SKY/WX    TMP DP  RH WIND       PRES   REMARKS
COLO. SPRINGS  MOCLDY    57  44  62 NE12      30.11R
A. F. ACADEMY  NOT AVBL
ELLICOTT       MOCLDY   N/A N/A N/A S9        30.10R
FALCON         MOCLDY    55  42  63 CALM      30.15S
FORT CARSON    NOT AVBL
LIMON          PTCLDY    50  48  93 N7        30.07R
MONUMENT HILL  PTCLDY    50  43  76 MISG      30.15R
TRINIDAD       MOCLDY    54  46  74 W10       30.09S
$$

COZ042>045-048>051-090-091-280500-
...NORTHEAST COLORADO...

CITY           SKY/WX    TMP DP  RH WIND       PRES   REMARKS
GREELEY ARPT   MOCLDY    63  55  77 NE9       30.05R THUNDER
AKRON          MOCLDY    60  56  86 SE18G28   30.06R
BURLINGTON     CLOUDY    60  55  83 SE15      30.09R
WRAY           PTCLDY    59  54  81 E15       30.06S
STERLING       MOCLDY    59  54  82 SE18G29   30.03R
HOLYOKE        PTCLDY    59  52  77 SE15      30.06R
FORT MORGAN    MOCLDY    62  55  79 SE17G25   30.03R
$$

COZ086-089-092>099-280500-
...SOUTHEAST COLORADO...

CITY           SKY/WX    TMP DP  RH WIND       PRES   REMARKS
PUEBLO         MOCLDY    59  53  80 NW3       30.03R
LA JUNTA       CLOUDY    66  52  60 E9        30.01R
LAMAR          LGT RAIN  61  56  83 E16       30.02R
SPRINGFIELD      N/A     58  54  86 S15       30.07R
$$



USA.gov is the U.S. government's official web portal to all federal, state and local government web resources and services.